Year,Month,Day,Hour,Minute,Value (Times are PST for temperature in C)
2018,10,20,00,00,9.40
2018,10,20,00,01,9.30
2018,10,20,00,02,9.30
2018,10,20,00,03,9.30
2018,10,20,00,04,9.30
2018,10,20,00,05,9.20
2018,10,20,00,06,9.20
2018,10,20,00,07,9.20
2018,10,20,00,08,9.10
2018,10,20,00,09,9.10
2018,10,20,00,10,9.10
2018,10,20,00,11,9.00
2018,10,20,00,12,9.00
2018,10,20,00,13,9.00
2018,10,20,00,14,9.00
2018,10,20,00,15,8.90
2018,10,20,00,16,8.90
2018,10,20,00,17,8.90
2018,10,20,00,18,8.90
2018,10,20,00,19,8.90
2018,10,20,00,20,8.80
2018,10,20,00,21,8.80
2018,10,20,00,22,8.80
2018,10,20,00,23,8.80
2018,10,20,00,24,8.80
2018,10,20,00,25,8.80
2018,10,20,00,26,8.80
2018,10,20,00,27,8.80
2018,10,20,00,28,8.70
2018,10,20,00,29,8.70
2018,10,20,00,30,8.70
2018,10,20,00,31,8.60
2018,10,20,00,32,8.60
2018,10,20,00,33,8.60
2018,10,20,00,34,8.50
2018,10,20,00,35,8.50
2018,10,20,00,36,8.50
2018,10,20,00,37,8.40
2018,10,20,00,38,8.40
2018,10,20,00,39,8.40
2018,10,20,00,40,8.40
2018,10,20,00,41,8.40
2018,10,20,00,42,8.40
2018,10,20,00,43,8.40
2018,10,20,00,44,8.40
2018,10,20,00,45,8.40
2018,10,20,00,46,8.40
2018,10,20,00,47,8.40
2018,10,20,00,48,8.40
2018,10,20,00,49,8.40
2018,10,20,00,50,8.40
2018,10,20,00,51,8.40
2018,10,20,00,52,8.40
2018,10,20,00,53,8.40
2018,10,20,00,54,8.40
2018,10,20,00,55,8.40
2018,10,20,00,56,8.40
2018,10,20,00,57,8.40
2018,10,20,00,58,8.40
2018,10,20,00,59,8.40
2018,10,20,01,00,8.40
2018,10,20,01,01,8.40
2018,10,20,01,02,8.40
2018,10,20,01,03,8.40
2018,10,20,01,04,8.40
2018,10,20,01,05,8.40
2018,10,20,01,06,8.40
2018,10,20,01,07,8.40
2018,10,20,01,08,8.30
2018,10,20,01,09,8.30
2018,10,20,01,10,8.30
2018,10,20,01,11,8.30
2018,10,20,01,12,8.30
2018,10,20,01,13,8.30
2018,10,20,01,14,8.20
2018,10,20,01,15,8.20
2018,10,20,01,16,8.20
2018,10,20,01,17,8.20
2018,10,20,01,18,8.10
2018,10,20,01,19,8.10
2018,10,20,01,20,8.10
2018,10,20,01,21,8.00
2018,10,20,01,22,8.00
2018,10,20,01,23,8.00
2018,10,20,01,24,7.90
2018,10,20,01,25,7.90
2018,10,20,01,26,7.90
2018,10,20,01,27,7.80
2018,10,20,01,28,7.80
2018,10,20,01,29,7.80
2018,10,20,01,30,7.80
2018,10,20,01,31,7.70
2018,10,20,01,32,7.70
2018,10,20,01,33,7.70
2018,10,20,01,34,7.60
2018,10,20,01,35,7.60
2018,10,20,01,36,7.60
2018,10,20,01,37,7.50
2018,10,20,01,38,7.50
2018,10,20,01,39,7.50
2018,10,20,01,40,7.40
2018,10,20,01,41,7.40
2018,10,20,01,42,7.40
2018,10,20,01,43,7.40
2018,10,20,01,44,7.30
2018,10,20,01,45,7.30
2018,10,20,01,46,7.30
2018,10,20,01,47,7.30
2018,10,20,01,48,7.20
2018,10,20,01,49,7.20
2018,10,20,01,50,7.20
2018,10,20,01,51,7.10
2018,10,20,01,52,7.10
2018,10,20,01,53,7.10
2018,10,20,01,54,7.10
2018,10,20,01,55,7.10
2018,10,20,01,56,7.00
2018,10,20,01,57,7.00
2018,10,20,01,58,7.00
2018,10,20,01,59,6.90
2018,10,20,02,00,6.90
2018,10,20,02,01,6.90
2018,10,20,02,02,6.90
2018,10,20,02,03,6.90
2018,10,20,02,04,6.90
2018,10,20,02,05,6.90
2018,10,20,02,06,6.90
2018,10,20,02,07,6.90
2018,10,20,02,08,6.90
2018,10,20,02,09,6.90
2018,10,20,02,10,6.90
2018,10,20,02,11,6.90
2018,10,20,02,12,6.90
2018,10,20,02,13,6.90
2018,10,20,02,14,6.90
2018,10,20,02,15,7.00
2018,10,20,02,16,7.00
2018,10,20,02,17,7.10
2018,10,20,02,18,7.10
2018,10,20,02,19,7.20
2018,10,20,02,20,7.20
2018,10,20,02,21,7.20
2018,10,20,02,22,7.20
2018,10,20,02,23,7.20
2018,10,20,02,24,7.20
2018,10,20,02,25,7.20
2018,10,20,02,26,7.20
2018,10,20,02,27,7.20
2018,10,20,02,28,7.20
2018,10,20,02,29,7.20
2018,10,20,02,30,7.10
2018,10,20,02,31,7.10
2018,10,20,02,32,7.10
2018,10,20,02,33,7.10
2018,10,20,02,34,7.10
2018,10,20,02,35,7.10
2018,10,20,02,36,7.10
2018,10,20,02,37,7.10
2018,10,20,02,38,7.10
2018,10,20,02,39,7.00
2018,10,20,02,40,7.00
2018,10,20,02,41,7.00
2018,10,20,02,42,7.00
2018,10,20,02,43,7.00
2018,10,20,02,44,6.90
2018,10,20,02,45,6.90
2018,10,20,02,46,6.90
2018,10,20,02,47,6.90
2018,10,20,02,48,6.90
2018,10,20,02,49,6.90
2018,10,20,02,50,6.90
2018,10,20,02,51,6.90
2018,10,20,02,52,6.90
2018,10,20,02,53,6.90
2018,10,20,02,54,6.90
2018,10,20,02,55,6.90
2018,10,20,02,56,6.80
2018,10,20,02,57,6.80
2018,10,20,02,58,6.80
2018,10,20,02,59,6.80
2018,10,20,03,00,6.80
2018,10,20,03,01,6.80
2018,10,20,03,02,6.80
2018,10,20,03,03,6.80
2018,10,20,03,04,6.80
2018,10,20,03,05,6.80
2018,10,20,03,06,6.80
2018,10,20,03,07,6.80
2018,10,20,03,08,6.80
2018,10,20,03,09,6.80
2018,10,20,03,10,6.80
2018,10,20,03,11,6.80
2018,10,20,03,12,6.80
2018,10,20,03,13,6.80
2018,10,20,03,14,6.80
2018,10,20,03,15,6.80
2018,10,20,03,16,6.80
2018,10,20,03,17,6.80
2018,10,20,03,18,6.80
2018,10,20,03,19,6.80
2018,10,20,03,20,6.80
2018,10,20,03,21,6.80
2018,10,20,03,22,6.80
2018,10,20,03,23,6.70
2018,10,20,03,24,6.70
2018,10,20,03,25,6.70
2018,10,20,03,26,6.60
2018,10,20,03,27,6.60
2018,10,20,03,28,6.60
2018,10,20,03,29,6.60
2018,10,20,03,30,6.50
2018,10,20,03,31,6.50
2018,10,20,03,32,6.50
2018,10,20,03,33,6.40
2018,10,20,03,34,6.40
2018,10,20,03,35,6.40
2018,10,20,03,36,6.40
2018,10,20,03,37,6.40
2018,10,20,03,38,6.30
2018,10,20,03,39,6.30
2018,10,20,03,40,6.30
2018,10,20,03,41,6.30
2018,10,20,03,42,6.20
2018,10,20,03,43,6.20
2018,10,20,03,44,6.20
2018,10,20,03,45,6.20
2018,10,20,03,46,6.10
2018,10,20,03,47,6.10
2018,10,20,03,48,6.10
2018,10,20,03,49,6.10
2018,10,20,03,50,6.10
2018,10,20,03,51,6.10
2018,10,20,03,52,6.10
2018,10,20,03,53,6.10
2018,10,20,03,54,6.00
2018,10,20,03,55,6.00
2018,10,20,03,56,6.00
2018,10,20,03,57,6.00
2018,10,20,03,58,6.00
2018,10,20,03,59,6.00
2018,10,20,04,00,6.10
2018,10,20,04,01,6.10
2018,10,20,04,02,6.10
2018,10,20,04,03,6.20
2018,10,20,04,04,6.20
2018,10,20,04,05,6.30
2018,10,20,04,06,6.30
2018,10,20,04,07,6.30
2018,10,20,04,08,6.40
2018,10,20,04,09,6.40
2018,10,20,04,10,6.40
2018,10,20,04,11,6.40
2018,10,20,04,12,6.40
2018,10,20,04,13,6.50
2018,10,20,04,14,6.50
2018,10,20,04,15,6.50
2018,10,20,04,16,6.50
2018,10,20,04,17,6.50
2018,10,20,04,18,6.50
2018,10,20,04,19,6.50
2018,10,20,04,20,6.50
2018,10,20,04,21,6.50
2018,10,20,04,22,6.50
2018,10,20,04,23,6.50
2018,10,20,04,24,6.50
2018,10,20,04,25,6.40
2018,10,20,04,26,6.40
2018,10,20,04,27,6.40
2018,10,20,04,28,6.40
2018,10,20,04,29,6.30
2018,10,20,04,30,6.30
2018,10,20,04,31,6.30
2018,10,20,04,32,6.30
2018,10,20,04,33,6.20
2018,10,20,04,34,6.20
2018,10,20,04,35,6.20
2018,10,20,04,36,6.10
2018,10,20,04,37,6.10
2018,10,20,04,38,6.10
2018,10,20,04,39,6.10
2018,10,20,04,40,6.10
2018,10,20,04,41,6.10
2018,10,20,04,42,6.10
2018,10,20,04,43,6.10
2018,10,20,04,44,6.10
2018,10,20,04,45,6.10
2018,10,20,04,46,6.10
2018,10,20,04,47,6.10
2018,10,20,04,48,6.00
2018,10,20,04,49,6.10
2018,10,20,04,50,6.10
2018,10,20,04,51,6.10
2018,10,20,04,52,6.10
2018,10,20,04,53,6.10
2018,10,20,04,54,6.10
2018,10,20,04,55,6.10
2018,10,20,04,56,6.10
2018,10,20,04,57,6.10
2018,10,20,04,58,6.10
2018,10,20,04,59,6.10
2018,10,20,05,00,6.10
2018,10,20,05,01,6.10
2018,10,20,05,02,6.10
2018,10,20,05,03,6.00
2018,10,20,05,04,6.00
2018,10,20,05,05,6.00
2018,10,20,05,06,6.00
2018,10,20,05,07,6.00
2018,10,20,05,08,6.10
2018,10,20,05,09,6.10
2018,10,20,05,10,6.10
2018,10,20,05,11,6.10
2018,10,20,05,12,6.10
2018,10,20,05,13,6.10
2018,10,20,05,14,6.10
2018,10,20,05,15,6.10
2018,10,20,05,16,6.10
2018,10,20,05,17,6.10
2018,10,20,05,18,6.00
2018,10,20,05,19,6.00
2018,10,20,05,20,6.00
2018,10,20,05,21,6.00
2018,10,20,05,22,5.90
2018,10,20,05,23,5.90
2018,10,20,05,24,5.90
2018,10,20,05,25,5.80
2018,10,20,05,26,5.80
2018,10,20,05,27,5.80
2018,10,20,05,28,5.80
2018,10,20,05,29,5.70
2018,10,20,05,30,5.70
2018,10,20,05,31,5.70
2018,10,20,05,32,5.70
2018,10,20,05,33,5.70
2018,10,20,05,34,5.70
2018,10,20,05,35,5.70
2018,10,20,05,36,5.70
2018,10,20,05,37,5.70
2018,10,20,05,38,5.70
2018,10,20,05,39,5.70
2018,10,20,05,40,5.60
2018,10,20,05,41,5.60
2018,10,20,05,42,5.60
2018,10,20,05,43,5.50
2018,10,20,05,44,5.50
2018,10,20,05,45,5.50
2018,10,20,05,46,5.50
2018,10,20,05,47,5.40
2018,10,20,05,48,5.40
2018,10,20,05,49,5.40
2018,10,20,05,50,5.40
2018,10,20,05,51,5.40
2018,10,20,05,52,5.40
2018,10,20,05,53,5.40
2018,10,20,05,54,5.40
2018,10,20,05,55,5.40
2018,10,20,05,56,5.40
2018,10,20,05,57,5.40
2018,10,20,05,58,5.30
2018,10,20,05,59,5.30
2018,10,20,06,00,5.30
2018,10,20,06,01,5.30
2018,10,20,06,02,5.30
2018,10,20,06,03,5.30
2018,10,20,06,04,5.30
2018,10,20,06,05,5.20
2018,10,20,06,06,5.20
2018,10,20,06,07,5.20
2018,10,20,06,08,5.20
2018,10,20,06,09,5.20
2018,10,20,06,10,5.10
2018,10,20,06,11,5.10
2018,10,20,06,12,5.10
2018,10,20,06,13,5.10
2018,10,20,06,14,5.10
2018,10,20,06,15,5.10
2018,10,20,06,16,5.10
2018,10,20,06,17,5.10
2018,10,20,06,18,5.00
2018,10,20,06,19,5.00
2018,10,20,06,20,5.00
2018,10,20,06,21,5.00
2018,10,20,06,22,4.90
2018,10,20,06,23,4.90
2018,10,20,06,24,4.90
2018,10,20,06,25,4.90
2018,10,20,06,26,4.90
2018,10,20,06,27,4.90
2018,10,20,06,28,4.90
2018,10,20,06,29,4.90
2018,10,20,06,30,4.90
2018,10,20,06,31,4.90
2018,10,20,06,32,5.00
2018,10,20,06,33,5.10
2018,10,20,06,34,5.20
2018,10,20,06,35,5.20
2018,10,20,06,36,5.30
2018,10,20,06,37,5.30
2018,10,20,06,38,5.30
2018,10,20,06,39,5.30
2018,10,20,06,40,5.30
2018,10,20,06,41,5.40
2018,10,20,06,42,5.40
2018,10,20,06,43,5.40
2018,10,20,06,44,5.40
2018,10,20,06,45,5.40
2018,10,20,06,46,5.40
2018,10,20,06,47,5.40
2018,10,20,06,48,5.40
2018,10,20,06,49,5.40
2018,10,20,06,50,5.40
2018,10,20,06,51,5.40
2018,10,20,06,52,5.40
2018,10,20,06,53,5.40
2018,10,20,06,54,5.40
2018,10,20,06,55,5.40
2018,10,20,06,56,5.40
2018,10,20,06,57,5.40
2018,10,20,06,58,5.40
2018,10,20,06,59,5.40
2018,10,20,07,00,5.40
2018,10,20,07,01,5.40
2018,10,20,07,02,5.40
2018,10,20,07,03,5.40
2018,10,20,07,04,5.50
2018,10,20,07,05,5.50
2018,10,20,07,06,5.50
2018,10,20,07,07,5.50
2018,10,20,07,08,5.60
2018,10,20,07,09,5.60
2018,10,20,07,10,5.60
2018,10,20,07,11,5.70
2018,10,20,07,12,5.80
2018,10,20,07,13,5.80
2018,10,20,07,14,5.80
2018,10,20,07,15,5.90
2018,10,20,07,16,5.90
2018,10,20,07,17,6.00
2018,10,20,07,18,6.00
2018,10,20,07,19,6.10
2018,10,20,07,20,6.10
2018,10,20,07,21,6.20
2018,10,20,07,22,6.20
2018,10,20,07,23,6.20
2018,10,20,07,24,6.30
2018,10,20,07,25,6.40
2018,10,20,07,26,6.40
2018,10,20,07,27,6.50
2018,10,20,07,28,6.50
2018,10,20,07,29,6.60
2018,10,20,07,30,6.60
2018,10,20,07,31,6.70
2018,10,20,07,32,6.70
2018,10,20,07,33,6.80
2018,10,20,07,34,6.80
2018,10,20,07,35,6.80
2018,10,20,07,36,6.80
2018,10,20,07,37,6.80
2018,10,20,07,38,6.90
2018,10,20,07,39,6.90
2018,10,20,07,40,6.90
2018,10,20,07,41,6.90
2018,10,20,07,42,6.90
2018,10,20,07,43,6.90
2018,10,20,07,44,7.00
2018,10,20,07,45,7.00
2018,10,20,07,46,7.00
2018,10,20,07,47,7.10
2018,10,20,07,48,7.10
2018,10,20,07,49,7.10
2018,10,20,07,50,7.10
2018,10,20,07,51,7.10
2018,10,20,07,52,7.10
2018,10,20,07,53,7.10
2018,10,20,07,54,7.20
2018,10,20,07,55,7.20
2018,10,20,07,56,7.20
2018,10,20,07,57,7.20
2018,10,20,07,58,7.20
2018,10,20,07,59,7.20
2018,10,20,08,00,7.20
2018,10,20,08,01,7.20
2018,10,20,08,02,7.30
2018,10,20,08,03,7.30
2018,10,20,08,04,7.30
2018,10,20,08,05,7.30
2018,10,20,08,06,7.30
2018,10,20,08,07,7.30
2018,10,20,08,08,7.40
2018,10,20,08,09,7.40
2018,10,20,08,10,7.40
2018,10,20,08,11,7.40
2018,10,20,08,12,7.40
2018,10,20,08,13,7.50
2018,10,20,08,14,7.50
2018,10,20,08,15,7.50
2018,10,20,08,16,7.50
2018,10,20,08,17,7.50
2018,10,20,08,18,7.50
2018,10,20,08,19,7.60
2018,10,20,08,20,7.60
2018,10,20,08,21,7.60
2018,10,20,08,22,7.60
2018,10,20,08,23,7.60
2018,10,20,08,24,7.60
2018,10,20,08,25,7.60
2018,10,20,08,26,7.70
2018,10,20,08,27,7.70
2018,10,20,08,28,7.70
2018,10,20,08,29,7.70
2018,10,20,08,30,7.70
2018,10,20,08,31,7.70
2018,10,20,08,32,7.80
2018,10,20,08,33,7.80
2018,10,20,08,34,7.80
2018,10,20,08,35,7.80
2018,10,20,08,36,7.80
2018,10,20,08,37,7.80
2018,10,20,08,38,7.80
2018,10,20,08,39,7.90
2018,10,20,08,40,7.90
2018,10,20,08,41,7.90
2018,10,20,08,42,7.90
2018,10,20,08,43,8.00
2018,10,20,08,44,8.00
2018,10,20,08,45,8.10
2018,10,20,08,46,8.10
2018,10,20,08,47,8.10
2018,10,20,08,48,8.20
2018,10,20,08,49,8.20
2018,10,20,08,50,8.20
2018,10,20,08,51,8.20
2018,10,20,08,52,8.30
2018,10,20,08,53,8.30
2018,10,20,08,54,8.30
2018,10,20,08,55,8.30
2018,10,20,08,56,8.30
2018,10,20,08,57,8.40
2018,10,20,08,58,8.40
2018,10,20,08,59,8.40
2018,10,20,09,00,8.40
2018,10,20,09,01,8.50
2018,10,20,09,02,8.50
2018,10,20,09,03,8.50
2018,10,20,09,04,8.60
2018,10,20,09,05,8.60
2018,10,20,09,06,8.60
2018,10,20,09,07,8.60
2018,10,20,09,08,8.70
2018,10,20,09,09,8.70
2018,10,20,09,10,8.70
2018,10,20,09,11,8.70
2018,10,20,09,12,8.70
2018,10,20,09,13,8.80
2018,10,20,09,14,8.80
2018,10,20,09,15,8.80
2018,10,20,09,16,8.80
2018,10,20,09,17,8.80
2018,10,20,09,18,8.80
2018,10,20,09,19,8.90
2018,10,20,09,20,8.90
2018,10,20,09,21,8.90
2018,10,20,09,22,8.90
2018,10,20,09,23,8.90
2018,10,20,09,24,8.90
2018,10,20,09,25,9.00
2018,10,20,09,26,9.00
2018,10,20,09,27,9.00
2018,10,20,09,28,9.10
2018,10,20,09,29,9.10
2018,10,20,09,30,9.10
2018,10,20,09,31,9.10
2018,10,20,09,32,9.20
2018,10,20,09,33,9.20
2018,10,20,09,34,9.20
2018,10,20,09,35,9.20
2018,10,20,09,36,9.20
2018,10,20,09,37,9.30
2018,10,20,09,38,9.30
2018,10,20,09,39,9.30
2018,10,20,09,40,9.30
2018,10,20,09,41,9.30
2018,10,20,09,42,9.30
2018,10,20,09,43,9.40
2018,10,20,09,44,9.40
2018,10,20,09,45,9.40
2018,10,20,09,46,9.40
2018,10,20,09,47,9.40
2018,10,20,09,48,9.50
2018,10,20,09,49,9.50
2018,10,20,09,50,9.50
2018,10,20,09,51,9.60
2018,10,20,09,52,9.60
2018,10,20,09,53,9.60
2018,10,20,09,54,9.60
2018,10,20,09,55,9.60
2018,10,20,09,56,9.70
2018,10,20,09,57,9.70
2018,10,20,09,58,9.70
2018,10,20,09,59,9.70
2018,10,20,10,00,9.70
2018,10,20,10,01,9.80
2018,10,20,10,02,9.80
2018,10,20,10,03,9.80
2018,10,20,10,04,9.80
2018,10,20,10,05,9.80
2018,10,20,10,06,9.90
2018,10,20,10,07,9.90
2018,10,20,10,08,9.90
2018,10,20,10,09,9.90
2018,10,20,10,10,9.90
2018,10,20,10,11,9.90
2018,10,20,10,12,9.90
2018,10,20,10,13,9.90
2018,10,20,10,14,10.00
2018,10,20,10,15,10.00
2018,10,20,10,16,10.00
2018,10,20,10,17,10.00
2018,10,20,10,18,10.10
2018,10,20,10,19,10.10
2018,10,20,10,20,10.10
2018,10,20,10,21,10.10
2018,10,20,10,22,10.10
2018,10,20,10,23,10.10
2018,10,20,10,24,10.10
2018,10,20,10,25,10.20
2018,10,20,10,26,10.20
2018,10,20,10,27,10.20
2018,10,20,10,28,10.20
2018,10,20,10,29,10.20
2018,10,20,10,30,10.20
2018,10,20,10,31,10.20
2018,10,20,10,32,10.20
2018,10,20,10,33,10.20
2018,10,20,10,34,10.20
2018,10,20,10,35,10.20
2018,10,20,10,36,10.30
2018,10,20,10,37,10.30
2018,10,20,10,38,10.30
2018,10,20,10,39,10.30
2018,10,20,10,40,10.30
2018,10,20,10,41,10.30
2018,10,20,10,42,10.30
2018,10,20,10,43,10.30
2018,10,20,10,44,10.30
2018,10,20,10,45,10.30
2018,10,20,10,46,10.30
2018,10,20,10,47,10.30
2018,10,20,10,48,10.30
2018,10,20,10,49,10.30
2018,10,20,10,50,10.40
2018,10,20,10,51,10.40
2018,10,20,10,52,10.40
2018,10,20,10,53,10.40
2018,10,20,10,54,10.40
2018,10,20,10,55,10.40
2018,10,20,10,56,10.40
2018,10,20,10,57,10.30
2018,10,20,10,58,10.30
2018,10,20,10,59,10.30
2018,10,20,11,00,10.30
2018,10,20,11,01,10.30
2018,10,20,11,02,10.30
2018,10,20,11,03,10.30
2018,10,20,11,04,10.30
2018,10,20,11,05,10.30
2018,10,20,11,06,10.30
2018,10,20,11,07,10.30
2018,10,20,11,08,10.30
2018,10,20,11,09,10.30
2018,10,20,11,10,10.30
2018,10,20,11,11,10.30
2018,10,20,11,12,10.30
2018,10,20,11,13,10.30
2018,10,20,11,14,10.30
2018,10,20,11,15,10.40
2018,10,20,11,16,10.40
2018,10,20,11,17,10.40
2018,10,20,11,18,10.40
2018,10,20,11,19,10.40
2018,10,20,11,20,10.50
2018,10,20,11,21,10.50
2018,10,20,11,22,10.60
2018,10,20,11,23,10.60
2018,10,20,11,24,10.60
2018,10,20,11,25,10.60
2018,10,20,11,26,10.70
2018,10,20,11,27,10.70
2018,10,20,11,28,10.70
2018,10,20,11,29,10.70
2018,10,20,11,30,10.70
2018,10,20,11,31,10.70
2018,10,20,11,32,10.70
2018,10,20,11,33,10.70
2018,10,20,11,34,10.70
2018,10,20,11,35,10.70
2018,10,20,11,36,10.80
2018,10,20,11,37,10.80
2018,10,20,11,38,10.80
2018,10,20,11,39,10.80
2018,10,20,11,40,10.80
2018,10,20,11,41,10.80
2018,10,20,11,42,10.80
2018,10,20,11,43,10.80
2018,10,20,11,44,10.80
2018,10,20,11,45,10.80
2018,10,20,11,46,10.80
2018,10,20,11,47,10.80
2018,10,20,11,48,10.90
2018,10,20,11,49,10.90
2018,10,20,11,50,10.90
2018,10,20,11,51,10.90
2018,10,20,11,52,10.90
2018,10,20,11,53,10.90
2018,10,20,11,54,10.90
2018,10,20,11,55,10.90
2018,10,20,11,56,10.90
2018,10,20,11,57,10.90
2018,10,20,11,58,10.90
2018,10,20,11,59,10.90
2018,10,20,12,00,10.90
2018,10,20,12,01,10.90
2018,10,20,12,02,11.00
2018,10,20,12,03,11.00
2018,10,20,12,04,11.10
2018,10,20,12,05,11.10
2018,10,20,12,06,11.10
2018,10,20,12,07,11.10
2018,10,20,12,08,11.20
2018,10,20,12,09,11.20
2018,10,20,12,10,11.20
2018,10,20,12,11,11.20
2018,10,20,12,12,11.20
2018,10,20,12,13,11.20
2018,10,20,12,14,11.20
2018,10,20,12,15,11.20
2018,10,20,12,16,11.20
2018,10,20,12,17,11.20
2018,10,20,12,18,11.20
2018,10,20,12,19,11.20
2018,10,20,12,20,11.20
2018,10,20,12,21,11.30
2018,10,20,12,22,11.30
2018,10,20,12,23,11.30
2018,10,20,12,24,11.40
2018,10,20,12,25,11.40
2018,10,20,12,26,11.40
2018,10,20,12,27,11.50
2018,10,20,12,28,11.50
2018,10,20,12,29,11.60
2018,10,20,12,30,11.70
2018,10,20,12,31,11.70
2018,10,20,12,32,11.70
2018,10,20,12,33,11.70
2018,10,20,12,34,11.80
2018,10,20,12,35,11.80
2018,10,20,12,36,11.80
2018,10,20,12,37,11.90
2018,10,20,12,38,12.00
2018,10,20,12,39,12.00
2018,10,20,12,40,12.00
2018,10,20,12,41,12.00
2018,10,20,12,42,12.00
2018,10,20,12,43,12.00
2018,10,20,12,44,12.00
2018,10,20,12,45,12.00
2018,10,20,12,46,12.00
2018,10,20,12,47,12.00
2018,10,20,12,48,12.00
2018,10,20,12,49,12.00
2018,10,20,12,50,12.10
2018,10,20,12,51,12.10
2018,10,20,12,52,12.10
2018,10,20,12,53,12.10
2018,10,20,12,54,12.20
2018,10,20,12,55,12.20
2018,10,20,12,56,12.20
2018,10,20,12,57,12.20
2018,10,20,12,58,12.30
2018,10,20,12,59,12.40
2018,10,20,13,00,12.40
2018,10,20,13,01,12.40
2018,10,20,13,02,12.40
2018,10,20,13,03,12.40
2018,10,20,13,04,12.40
2018,10,20,13,05,12.40
2018,10,20,13,06,12.50
2018,10,20,13,07,12.60
2018,10,20,13,08,12.60
2018,10,20,13,09,12.70
2018,10,20,13,10,12.70
2018,10,20,13,11,12.80
2018,10,20,13,12,12.80
2018,10,20,13,13,12.80
2018,10,20,13,14,12.80
2018,10,20,13,15,12.80
2018,10,20,13,16,12.80
2018,10,20,13,17,12.90
2018,10,20,13,18,12.90
2018,10,20,13,19,12.90
2018,10,20,13,20,13.00
2018,10,20,13,21,13.00
2018,10,20,13,22,13.00
2018,10,20,13,23,13.10
2018,10,20,13,24,13.10
2018,10,20,13,25,13.10
2018,10,20,13,26,13.10
2018,10,20,13,27,13.10
2018,10,20,13,28,13.20
2018,10,20,13,29,13.20
2018,10,20,13,30,13.20
2018,10,20,13,31,13.20
2018,10,20,13,32,13.20
2018,10,20,13,33,13.20
2018,10,20,13,34,13.20
2018,10,20,13,35,13.20
2018,10,20,13,36,13.20
2018,10,20,13,37,13.20
2018,10,20,13,38,13.20
2018,10,20,13,39,13.20
2018,10,20,13,40,13.30
2018,10,20,13,41,13.30
2018,10,20,13,42,13.30
2018,10,20,13,43,13.30
2018,10,20,13,44,13.30
2018,10,20,13,45,13.30
2018,10,20,13,46,13.30
2018,10,20,13,47,13.30
2018,10,20,13,48,13.30
2018,10,20,13,49,13.30
2018,10,20,13,50,13.30
2018,10,20,13,51,13.30
2018,10,20,13,52,13.30
2018,10,20,13,53,13.40
2018,10,20,13,54,13.40
2018,10,20,13,55,13.40
2018,10,20,13,56,13.40
2018,10,20,13,57,13.40
2018,10,20,13,58,13.40
2018,10,20,13,59,13.40
2018,10,20,14,00,13.40
2018,10,20,14,01,13.40
2018,10,20,14,02,13.40
2018,10,20,14,03,13.50
2018,10,20,14,04,13.50
2018,10,20,14,05,13.50
2018,10,20,14,06,13.60
2018,10,20,14,07,13.60
2018,10,20,14,08,13.60
2018,10,20,14,09,13.70
2018,10,20,14,10,13.70
2018,10,20,14,11,13.70
2018,10,20,14,12,13.80
2018,10,20,14,13,13.80
2018,10,20,14,14,13.90
2018,10,20,14,15,13.90
2018,10,20,14,16,14.00
2018,10,20,14,17,14.00
2018,10,20,14,18,14.10
2018,10,20,14,19,14.10
2018,10,20,14,20,14.20
2018,10,20,14,21,14.20
2018,10,20,14,22,14.30
2018,10,20,14,23,14.30
2018,10,20,14,24,14.40
2018,10,20,14,25,14.40
2018,10,20,14,26,14.50
2018,10,20,14,27,14.50
2018,10,20,14,28,14.60
2018,10,20,14,29,14.60
2018,10,20,14,30,14.70
2018,10,20,14,31,14.70
2018,10,20,14,32,14.80
2018,10,20,14,33,14.80
2018,10,20,14,34,14.80
2018,10,20,14,35,14.90
2018,10,20,14,36,14.90
2018,10,20,14,37,15.00
2018,10,20,14,38,15.10
2018,10,20,14,39,15.10
2018,10,20,14,40,15.20
2018,10,20,14,41,15.20
2018,10,20,14,42,15.30
2018,10,20,14,43,15.30
2018,10,20,14,44,15.40
2018,10,20,14,45,15.50
2018,10,20,14,46,15.60
2018,10,20,14,47,15.60
2018,10,20,14,48,15.70
2018,10,20,14,49,15.70
2018,10,20,14,50,15.80
2018,10,20,14,51,15.80
2018,10,20,14,52,15.90
2018,10,20,14,53,15.90
2018,10,20,14,54,16.00
2018,10,20,14,55,16.00
2018,10,20,14,56,16.00
2018,10,20,14,57,16.10
2018,10,20,14,58,16.10
2018,10,20,14,59,16.20
2018,10,20,15,00,16.20
2018,10,20,15,01,16.20
2018,10,20,15,02,16.30
2018,10,20,15,03,16.30
2018,10,20,15,04,16.30
2018,10,20,15,05,16.30
2018,10,20,15,06,16.40
2018,10,20,15,07,16.40
2018,10,20,15,08,16.40
2018,10,20,15,09,16.50
2018,10,20,15,10,16.50
2018,10,20,15,11,16.60
2018,10,20,15,12,16.60
2018,10,20,15,13,16.60
2018,10,20,15,14,16.60
2018,10,20,15,15,16.60
2018,10,20,15,16,16.50
2018,10,20,15,17,16.40
2018,10,20,15,18,16.30
2018,10,20,15,19,16.10
2018,10,20,15,20,16.10
2018,10,20,15,21,16.00
2018,10,20,15,22,15.90
2018,10,20,15,23,15.80
2018,10,20,15,24,15.70
2018,10,20,15,25,15.60
2018,10,20,15,26,15.50
2018,10,20,15,27,15.40
2018,10,20,15,28,15.30
2018,10,20,15,29,15.20
2018,10,20,15,30,15.10
2018,10,20,15,31,15.00
2018,10,20,15,32,15.00
2018,10,20,15,33,14.90
2018,10,20,15,34,14.80
2018,10,20,15,35,14.80
2018,10,20,15,36,14.70
2018,10,20,15,37,14.60
2018,10,20,15,38,14.60
2018,10,20,15,39,14.60
2018,10,20,15,40,14.50
2018,10,20,15,41,14.50
2018,10,20,15,42,14.50
2018,10,20,15,43,14.50
2018,10,20,15,44,14.50
2018,10,20,15,45,14.50
2018,10,20,15,46,14.40
2018,10,20,15,47,14.40
2018,10,20,15,48,14.40
2018,10,20,15,49,14.30
2018,10,20,15,50,14.30
2018,10,20,15,51,14.30
2018,10,20,15,52,14.30
2018,10,20,15,53,14.30
2018,10,20,15,54,14.30
2018,10,20,15,55,14.30
2018,10,20,15,56,14.30
2018,10,20,15,57,14.20
2018,10,20,15,58,14.20
2018,10,20,15,59,14.20
2018,10,20,16,00,14.20
2018,10,20,16,01,14.20
2018,10,20,16,02,14.20
2018,10,20,16,03,14.20
2018,10,20,16,04,14.20
2018,10,20,16,05,14.20
2018,10,20,16,06,14.20
2018,10,20,16,07,14.20
2018,10,20,16,08,14.20
2018,10,20,16,09,14.20
2018,10,20,16,10,14.20
2018,10,20,16,11,14.10
2018,10,20,16,12,14.10
2018,10,20,16,13,14.10
2018,10,20,16,14,14.00
2018,10,20,16,15,14.00
2018,10,20,16,16,14.10
2018,10,20,16,17,14.10
2018,10,20,16,18,14.10
2018,10,20,16,19,14.00
2018,10,20,16,20,14.00
2018,10,20,16,21,14.00
2018,10,20,16,22,13.90
2018,10,20,16,23,13.90
2018,10,20,16,24,13.90
2018,10,20,16,25,13.80
2018,10,20,16,26,13.80
2018,10,20,16,27,13.70
2018,10,20,16,28,13.70
2018,10,20,16,29,13.60
2018,10,20,16,30,13.60
2018,10,20,16,31,13.50
2018,10,20,16,32,13.40
2018,10,20,16,33,13.30
2018,10,20,16,34,13.30
2018,10,20,16,35,13.20
2018,10,20,16,36,13.10
2018,10,20,16,37,13.10
2018,10,20,16,38,13.00
2018,10,20,16,39,13.00
2018,10,20,16,40,12.90
2018,10,20,16,41,12.90
2018,10,20,16,42,12.90
2018,10,20,16,43,12.90
2018,10,20,16,44,12.90
2018,10,20,16,45,12.90
2018,10,20,16,46,12.90
2018,10,20,16,47,12.90
2018,10,20,16,48,12.90
2018,10,20,16,49,12.90
2018,10,20,16,50,12.90
2018,10,20,16,51,12.90
2018,10,20,16,52,12.90
2018,10,20,16,53,12.90
2018,10,20,16,54,13.00
2018,10,20,16,55,13.00
2018,10,20,16,56,13.00
2018,10,20,16,57,13.00
2018,10,20,16,58,13.00
2018,10,20,16,59,13.00
2018,10,20,17,00,13.10
2018,10,20,17,01,13.10
2018,10,20,17,02,13.10
2018,10,20,17,03,13.10
2018,10,20,17,04,13.10
2018,10,20,17,05,13.10
2018,10,20,17,06,13.10
2018,10,20,17,07,13.10
2018,10,20,17,08,13.10
2018,10,20,17,09,13.10
2018,10,20,17,10,13.10
2018,10,20,17,11,13.10
2018,10,20,17,12,13.10
2018,10,20,17,13,13.10
2018,10,20,17,14,13.00
2018,10,20,17,15,13.00
2018,10,20,17,16,13.00
2018,10,20,17,17,12.90
2018,10,20,17,18,12.90
2018,10,20,17,19,12.90
2018,10,20,17,20,12.90
2018,10,20,17,21,12.90
2018,10,20,17,22,12.90
2018,10,20,17,23,12.90
2018,10,20,17,24,12.90
2018,10,20,17,25,12.90
2018,10,20,17,26,12.90
2018,10,20,17,27,12.90
2018,10,20,17,28,12.80
2018,10,20,17,29,12.80
2018,10,20,17,30,12.80
2018,10,20,17,31,12.80
2018,10,20,17,32,12.80
2018,10,20,17,33,12.80
2018,10,20,17,34,12.80
2018,10,20,17,35,12.80
2018,10,20,17,36,12.80
2018,10,20,17,37,12.80
2018,10,20,17,38,12.80
2018,10,20,17,39,12.80
2018,10,20,17,40,12.80
2018,10,20,17,41,12.80
2018,10,20,17,42,12.80
2018,10,20,17,43,12.80
2018,10,20,17,44,12.80
2018,10,20,17,45,12.80
2018,10,20,17,46,12.70